IRIDIUM 33 DEB, 35618

Orbit data source: Space-Track

IRIDIUM 33 DEB, 35618 is space debris in LEO originally from a launch on Sun, 14 Sep 1997 UTC launched from the Tyuratam Missile And Space Complex (TTMTR). The debris from Iridium 33, an American commercial communications satellite, has been tracked extensively since its accidental collision with the defunct Russian satellite Cosmos 2251 in 2009. This event, occurring at high speed in low Earth orbit (LEO), generated thousands of pieces of space debris, significantly increasing the risk of further collisions. The Iridium 33 debris cloud has impacted space traffic management and orbital debris mitigation strategies, making it a subject of ongoing study in space situational awareness.

Loading next visibility...
Identifier
35618, 1997-051QQ
Orbit
LEO
Country
Flag of USUS
Related business
Manufacturer
Unknown
Mission
Spacecraft
Bus & Motor
Unknown
Mass
Unknown
Launch date (UTC)
1997-09-14 (29 years ago)
Launch vehicle
Unknown
Launch site
Tyuratam Missile And Space Complex (TTMTR)
Object type
Payload
Rocket body
Debris
Shape & HBR
Unknown shape, 0.1 m
Radar Cross Section
Small (<0.1 m²)

Expand to show TLE details & history
Last TLE update: 1 week ago

TLE from 1 week ago
0 IRIDIUM 33 DEB
1 35618U 97051QQ  26114.22865173  .00001209  00000-0  28755-3 0  9995
2 35618  86.3344 295.5416 0026281 294.7776  65.0696 14.52870281673170
Epoch: 2026-04-24T05:29Z
TLE epoch observation values (Epoch: 2026-04-24T05:29:15.509Z)
Latitude
-0.00002°
Longitude
0.9626°
Altitude
711.545 km
Speed
7.504 km/s
True Right ascension
19h 42m 09s
True Declination
0° 00' 00"
Sunlit
Object was in daylight at epoch
Visualization orbit readout
Latitude
Unknown
Longitude
Unknown
Altitude
Unknown
Speed
Unknown
Apparent Right ascension
Unknown
Apparent Declination
Unknown
Sunlit
N/A
Visualization observer readout
Local Sidereal Time
04:20:27
Azimuth
Unknown
Elevation
Unknown
Doppler factor
Unknown
Orbital elements
Apogee altitude
731.866 km
Perigee altitude
694.592 km
Semi-major axis
7,091.366 km
Eccentricity
0.00263
Inclination
86.3344°
RAAN
295.5416°
Arg. of periapsis
294.7776°
True anomaly
65.34307°
Mean anomaly
65.0696°
Eccentric anomaly
65.2063°
Mean motion
3.63453 °/min
Orbital period
99.05 mins
BSTAR
0.00028755
Loading maneuver chart data...
Computing Atmospheric mass density...

Documentation

Showing up to 5 results
|